TimeMDT,TemperatureF,Dew PointF,Humidity,Sea Level PressureIn,VisibilityMPH,Wind Direction,Wind SpeedMPH,Gust SpeedMPH,PrecipitationIn,Events,Conditions,WindDirDegrees,DateUTC
12:54 AM,61.0,19.9,21,29.64,10.0,SW,6.9,-,N/A,,Clear,220,2012-10-23 06:54:00
1:54 AM,55.0,21.0,27,29.64,10.0,West,6.9,-,N/A,,Clear,260,2012-10-23 07:54:00
2:54 AM,50.0,21.9,33,29.64,10.0,Calm,Calm,-,N/A,,Clear,0,2012-10-23 08:54:00
3:54 AM,55.9,21.0,26,29.62,10.0,West,12.7,-,N/A,,Clear,260,2012-10-23 09:54:00
4:54 AM,48.9,19.9,32,29.66,10.0,West,9.2,-,N/A,,Clear,270,2012-10-23 10:54:00
5:54 AM,48.0,19.9,33,29.69,10.0,Calm,Calm,-,N/A,,Clear,0,2012-10-23 11:54:00
6:54 AM,48.0,23.0,37,29.70,10.0,West,3.5,-,N/A,,Clear,280,2012-10-23 12:54:00
7:54 AM,60.1,21.9,23,29.67,10.0,South,12.7,-,N/A,,Clear,190,2012-10-23 13:54:00
9:54 AM,72.0,14.0,11,29.67,10.0,SSE,5.8,-,N/A,,Clear,160,2012-10-23 15:54:00
10:54 AM,75.9,12.9,9,29.64,10.0,WSW,20.7,33.4,N/A,,Clear,240,2012-10-23 16:54:00
11:54 AM,78.1,12.9,8,29.61,10.0,West,33.4,42.6,N/A,,Clear,260,2012-10-23 17:54:00
12:54 PM,80.1,12.0,8,29.59,10.0,WSW,32.2,40.3,N/A,,Clear,240,2012-10-23 18:54:00
1:54 PM,80.1,9.0,7,29.59,10.0,WSW,33.4,40.3,N/A,,Clear,250,2012-10-23 19:54:00
2:54 PM,81.0,9.0,6,29.58,10.0,WSW,31.1,36.8,N/A,,Clear,240,2012-10-23 20:54:00
3:54 PM,79.0,10.0,7,29.58,10.0,WSW,15.0,32.2,N/A,,Clear,250,2012-10-23 21:54:00
4:54 PM,78.1,8.1,7,29.61,10.0,WSW,17.3,-,N/A,,Clear,240,2012-10-23 22:54:00
5:54 PM,73.0,8.1,8,29.64,10.0,SW,15.0,-,N/A,,Clear,230,2012-10-23 23:54:00
6:54 PM,69.1,9.0,10,29.67,10.0,SW,15.0,-,N/A,,Clear,220,2012-10-24 00:54:00
7:54 PM,66.9,12.0,12,29.66,10.0,SW,18.4,-,N/A,,Clear,220,2012-10-24 01:54:00
8:54 PM,63.0,14.0,15,29.66,10.0,SSW,13.8,23.0,N/A,,Clear,200,2012-10-24 02:54:00
9:54 PM,62.1,15.1,16,29.65,10.0,SSW,12.7,-,N/A,,Clear,200,2012-10-24 03:54:00
10:54 PM,63.0,16.0,16,29.63,10.0,SSW,11.5,-,N/A,,Clear,200,2012-10-24 04:54:00